Simultaneous Nadir Overpasses (SNOs) Predictions

Prediction of SNOs between FY3D and LANDSAT-8 Satellite Orbit:

Table of predicted SNOs for the next 14.0 days since TLE Epoch: 11/2/2019
Index Date (FY3D) Time (FY3D) Lat,Lon (FY3D) SZA (FY3D ) Date (LANDSAT-8) Time (LANDSAT-8) Lat,Lon (LANDSAT-8) SZA (LANDSAT-8 ) Distance(km) Time Diff (sec)
1 11/04/2019 00:22:11 70.46, 171.21 85.58 11/04/2019 00:23:08 70.44, 171.22 85.55 3.04 57
2 11/04/2019 01:12:53 -70.36, -21.31 94.51 11/04/2019 01:12:37 -70.38, -21.24 94.51 3.01 16
3 11/04/2019 02:03:24 69.61, 147.14 84.75 11/04/2019 02:02:15 69.67, 145.41 84.80 67.42 69
4 11/06/2019 16:38:37 70.47, -72.90 86.40 11/06/2019 16:39:36 70.47, -72.85 86.40 2.26 59
5 11/06/2019 17:29:19 -70.37, 94.57 93.70 11/06/2019 17:29:06 -70.36, 94.62 93.70 1.92 13
6 11/06/2019 18:19:52 69.72, -97.13 85.68 11/06/2019 18:18:42 69.76, -98.58 85.71 56.00 70
7 11/09/2019 08:55:03 70.48, 42.98 87.19 11/09/2019 08:56:05 70.45, 43.01 87.17 2.95 62
8 11/09/2019 09:45:45 -70.37,-149.54 92.91 11/09/2019 09:45:35 -70.34,-149.52 92.94 3.13 10
9 11/09/2019 10:36:19 69.78, 18.67 86.52 11/09/2019 10:35:09 69.85, 17.42 86.58 48.47 70
10 11/12/2019 01:11:28 70.49, 158.86 87.95 11/12/2019 01:12:32 70.48, 158.93 87.94 2.80 64
11 11/12/2019 02:02:10 -70.38, -33.65 92.16 11/12/2019 02:02:02 -70.38, -33.59 92.16 2.30 8
12 11/12/2019 02:52:46 69.90, 134.39 87.38 11/12/2019 02:51:35 69.94, 133.42 87.41 37.30 71
13 11/14/2019 17:27:53 70.44, -85.18 88.62 11/14/2019 17:29:01 70.45, -85.23 88.63 2.24 68
14 11/14/2019 18:18:35 -70.33, 82.31 91.49 11/14/2019 18:18:31 -70.35, 82.25 91.48 3.06 4
15 11/14/2019 19:09:13 69.96,-109.81 88.15 11/14/2019 19:08:02 70.02,-110.58 88.20 30.22 71




NCC Satellite Simultaneous Nadir Overpasses (SNOs) Prediction Service
